This demonstration page uses our WeatherBlox Daily Observations layout. Learn more.

39.01783, -85.05884

Hourly Observations for November 10, 2019

Temp ( °F °C ) Dew Point ( °F °C ) Humidity (%) Winds ( mph kmh ) Pressure ( in mb ) Visibility ( mi km ) Precip ( " mm )
12:52 am 00:52 Cloudy 41 5 24 -4.4 51 51 SSW 7 11 30.02 1017 10 16.0934 0 0
1:52 am 01:52 Cloudy 42 5.6 25 -3.9 51 51 SSW 9 15 30.02 1017 10 16.0934 0 0
2:52 am 02:52 Cloudy 41 5 26 -3.3 55 55 SW 9 15 30.03 1017 10 16.0934 0 0
3:52 am 03:52 Mostly Cloudy 40 4.4 26 -3.3 58 58 SSW 7 11 30.03 1017 10 16.0934 0 0
4:52 am 04:52 Cloudy 41 5 27 -2.8 57 57 SSW 8 13 30.03 1017 10 16.0934 0 0
5:52 am 05:52 Mostly Cloudy 42 5.6 28 -2.2 58 58 SSW 8 13 30.03 1017 10 16.0934 0 0
6:52 am 06:52 Cloudy 42 5.6 29 -1.7 60 60 SSW 7 11 30.05 1018 10 16.0934 0 0
7:52 am 07:52 Cloudy 43 6.1 29 -1.7 58 58 SSW 12 19 30.05 1018 10 16.0934 0 0
8:52 am 08:52 Partly Cloudy 44 6.7 30 -1.1 58 58 SW 13 20 30.06 1018 10 16.0934 0 0
9:52 am 09:52 Mostly Cloudy 49 9.4 32 0 52 52 S 13 20 30.04 1017 10 16.0934 0 0
10:52 am 10:52 Mostly Sunny 51 10.6 33 0.6 50 50 SSW 13 20 30.03 1017 10 16.0934 0 0
11:52 am 11:52 Mostly Sunny 55 12.8 34 1.1 45 45 SSW 13 20 30.01 1016 10 16.0934 0 0
12:52 pm 12:52 Mostly Cloudy 60 15.6 37 2.8 42 42 SSW 15 24 29.98 1015 10 16.0934 0 0
1:52 pm 13:52 Mostly Sunny 61 16.1 38 3.3 43 43 SSW 12 19 29.96 1015 10 16.0934 0 0
2:52 pm 14:52 Mostly Sunny 62 16.7 38 3.3 41 41 SSW 14 22 29.93 1014 10 16.0934 0 0
3:52 pm 15:52 Mostly Sunny 62 16.7 38 3.3 41 41 SSW 16 26 29.93 1013 10 16.0934 0 0
4:52 pm 16:52 Partly Cloudy 61 16.1 39 3.9 44 44 SSW 8 13 29.93 1014 10 16.0934 0 0
5:52 pm 17:52 Partly Cloudy 58 14.4 38 3.3 48 48 SW 7 11 29.96 1015 10 16.0934 0 0
6:52 pm 18:52 Mostly Clear 55 12.8 38 3.3 53 53 SSW 5 7 29.98 1015 10 16.0934 0 0
7:52 pm 19:52 Mostly Cloudy 54 12.2 38 3.3 55 55 WSW 5 7 29.99 1016 10 16.0934 0 0
8:52 pm 20:52 Mostly Clear 50 10 38 3.3 63 63 SW 5 7 29.99 1016 10 16.0934 0 0
9:52 pm 21:52 Mostly Cloudy 49 9.4 38 3.3 66 66 Calm 30 1016 10 16.0934 0 0
10:52 pm 22:52 Partly Cloudy 47 8.3 38 3.3 71 71 Calm 30.01 1016 10 16.0934 0 0
11:52 pm 23:52 Mostly Clear 46 7.8 37 2.8 71 71 S 3 6 30.01 1016 10 16.0934 0 0

Powered by AerisWeather